Location: Unspecified
(47.4992°N, 121.7766°W)
Time: 14:10:11
(UTC-07:00)

CZ-3 Stage 3 - Visible Passes

Search period start: 18 June 2018 00:00
Search period end: 28 June 2018 00:00
Orbit: 407 x 34788 km, 30.8° (Epoch: 18 June)

Date Brightness Start Highest point End Pass type
(mag) Time Alt. Az. Time Alt. Az. Time Alt. Az.
18 Jun 8.7 22:22:42 10° ESE 03:00:59 42° SE 04:02:43 10° E visible
20 Jun 6.4 03:34:35 10° SW 05:15:08 14° SW 11:09:16 10° SSE visible
20 Jun 8.0 23:17:31 10° SSE 07:12:10 59° S 07:34:47 10° ESE visible
21 Jun 8.7 22:07:34 10° ESE 02:50:06 43° SE 03:53:00 10° E visible
23 Jun 6.5 03:18:40 10° SW 05:04:11 15° SW 10:59:28 10° SSE visible
23 Jun 8.0 23:04:30 10° SSE 07:02:01 60° S 07:25:02 10° ESE visible
24 Jun 8.6 21:52:30 10° ESE 02:39:08 44° SE 03:43:14 10° E visible
26 Jun 6.5 03:03:17 10° SW 04:53:11 15° SW 10:49:39 10° SSE visible
26 Jun 7.9 22:51:35 10° SSE 06:51:48 60° S 07:15:15 10° ESE visible
